{"data":{"norad_id":48981,"intl_designator":"2021-060Q","name":"ONEWEB-0263","alt_names":[],"object_type":"PAYLOAD","status":"ACTIVE","operator":null,"country":"UK","launch_date":"2021-07-01","launch_site_code":"VOSTO","launch_vehicle":null,"mission":null,"orbit_class":"UNKNOWN","rcs_meters":null,"size_class":null,"mass_kg":null,"dimensions":null,"purposes":["comms"],"wikipedia_slug":null,"has_3d_model":false,"image_url":null,"decayed_at":null,"tle_current":{"epoch":"2026-05-24T15:56:12.423552Z","epoch_age_seconds":100604,"freshness":"FRESH","line1":"1 48981U 21060Q   26144.66403268 -.00000073  00000+0 -22511-3 0  9996","line2":"2 48981  87.9105 233.4515 0001715  94.8433 265.2893 13.16593323236495","mean_motion":13.16593323,"eccentricity":0.0001715,"inclination_deg":87.9105,"raan_deg":233.4515,"arg_perigee_deg":94.8433,"mean_anomaly_deg":265.2893,"bstar":-0.00022511,"rev_number":23649,"period_min":109.37318113681,"perigee_km":1196.4609836411,"apogee_km":1199.0595163978,"semimajor_km":7575.8972500195,"source":"CELESTRAK","updated_at":"2026-05-25T13:38:22.473253Z"}}}